Location: Unspecified
(54.3232°N, 10.1392°E)
Time: 21:53:25
(UTC+01:00)

ISS - Visible Passes

Search period start: 30 November 2023 00:00
Search period end: 10 December 2023 00:00
Orbit: 416 x 417 km, 51.6° (Epoch: 30 November)

Date Brightness Start Highest point End Pass type
(mag) Time Alt. Az. Time Alt. Az. Time Alt. Az.
30 Nov -2.9 17:28:39 10° W 17:31:55 47° S 17:34:45 13° ESE visible
30 Nov -1.3 19:05:37 10° W 19:07:41 20° SW 19:07:41 20° SW visible
01 Dec -3.0 16:40:17 10° W 16:43:34 52° S 16:46:52 10° ESE visible
01 Dec -1.9 18:17:04 10° W 18:19:57 26° SSW 18:21:30 19° SSE visible
02 Dec -2.2 17:28:33 10° W 17:31:38 33° SSW 17:34:42 10° SE visible
02 Dec -0.7 19:06:37 10° WSW 19:07:39 11° SW 19:08:21 11° SSW visible
03 Dec -2.4 16:40:03 10° W 16:43:14 41° SSW 16:46:25 10° SE visible
03 Dec -0.9 18:17:17 10° WSW 18:19:23 16° SW 18:21:29 10° S visible
04 Dec -1.2 17:28:26 10° W 17:31:03 21° SSW 17:33:39 10° SSE visible
05 Dec -1.5 16:39:42 10° W 16:42:37 27° SSW 16:45:31 10° SE visible
06 Dec -0.4 17:28:51 10° WSW 17:30:07 12° SW 17:31:23 10° SSW visible
07 Dec -0.6 16:39:28 10° WSW 16:41:40 16° SW 16:43:51 10° S visible
